COSMOS 2251 DEB, 34325

Orbit data source: Space-Track

COSMOS 2251 DEB, 34325 is space debris in LEO originally from a launch on Wed, 16 Jun 1993 UTC launched from the Plesetsk Missile And Space Complex (PKMTR). The debris from Iridium 33, an American commercial communications satellite, has been tracked extensively since its accidental collision with the defunct Russian satellite Cosmos 2251 in 2009. This event, occurring at high speed in low Earth orbit (LEO), generated thousands of pieces of space debris, significantly increasing the risk of further collisions. The Iridium 33 debris cloud has impacted space traffic management and orbital debris mitigation strategies, making it a subject of ongoing study in space situational awareness.

Loading next visibility...
Identifier
34325, 1993-036NX
Orbit
LEO
Country
Flag of CISCIS
Related business
Manufacturer
Unknown
Mission
Spacecraft
Bus & Motor
Unknown
Mass
Unknown
Launch date (UTC)
1993-06-16 (33 years ago)
Launch vehicle
Unknown
Launch site
Plesetsk Missile And Space Complex (PKMTR)
Object type
Payload
Rocket body
Debris
Shape & HBR
Unknown shape, 0.1 m
Radar Cross Section
Small (<0.1 m²)

Expand to show TLE details & history
Last TLE update: 8 hours ago

TLE from 8 hours ago
0 COSMOS 2251 DEB
1 34325U 93036NX  26061.98440360  .00002978  00000-0  15921-2 0  9993
2 34325  73.8704  51.3611 0188683  52.9641 338.6136 14.04911167866426
Epoch: 2026-03-02T23:37Z
TLE epoch observation values (Epoch: 2026-03-02T23:37:32.471Z)
Latitude
29.49481°
Longitude
-94.43013°
Altitude
753.03 km
Speed
7.546 km/s
True Right ascension
04h 02m 54s
True Declination
29° 20' 51"
Sunlit
Object was in daylight at epoch
Visualization orbit readout
Latitude
Unknown
Longitude
Unknown
Altitude
Unknown
Speed
Unknown
Apparent Right ascension
Unknown
Apparent Declination
Unknown
Sunlit
N/A
Visualization observer readout
Local Sidereal Time
11:03:52
Azimuth
Unknown
Elevation
Unknown
Doppler factor
Unknown
Orbital elements
Apogee altitude
1,011.355 km
Perigee altitude
737.664 km
Semi-major axis
7,252.646 km
Eccentricity
0.01887
Inclination
73.8704°
RAAN
51.3611°
Arg. of periapsis
52.9641°
True anomaly
337.8075°
Mean anomaly
338.6136°
Eccentric anomaly
338.21234°
Mean motion
3.51397 °/min
Orbital period
102.45 mins
BSTAR
0.0015921
Loading maneuver chart data...
Computing Atmospheric mass density...

Documentation

Showing up to 5 results
|